Lufkin, TX

9:54 AM CDT on October 21, 2017 (GMT -0500)
Angelina County

Weather History for KLFK - April, 2013

Change the Weather History Date:

Sunday, April 21, 2013

  Actual Average Record
Temperature  
Mean Temperature 59 °F 68 °F  
Max Temperature 75 °F 79 °F 91 °F (2011)
Min Temperature 43 °F 56 °F 37 °F (1918)
Degree Days  
Heating Degree Days 6 2  
Month to date heating degree days 84 61  
Since 1 July heating degree days 1581 1905  
Cooling Degree Days 0 4  
Month to date cooling degree days 84 70  
Year to date cooling degree days 151 130  
Growing Degree Days 8 (Base 50)    
Moisture  
Dew Point 44 °F    
Average Humidity 61    
Maximum Humidity 89    
Minimum Humidity 33    
Precipitation  
Precipitation 0.00 in 0.11 in 1.40 in (1921)
Month to date precipitation 2.19 2.08  
Year to date precipitation 11.54 13.91  
Snow  
Snow 0.00 in - - ()
Month to date snowfall 0.0  
Since 1 July snowfall 0.0  
Snow Depth 0.00 in    
Sea Level Pressure  
Sea Level Pressure 30.15 in    
Wind  
Wind Speed 4 mph (East)    
Max Wind Speed 15 mph    
Max Gust Speed 20 mph    
Visibility 10 miles    
Events      
T = Trace of Precipitation, MM = Missing Value Source: NWS Daily Summary

Daily Weather History Graph

Daily Weather History Graph

Search for Another Location

Airport or City:

Trip Planner

Search our weather history database for the weather conditions in past years. The results will help you decide how hot, cold, wet, or windy it might be!

Date:

Astronomy

Apr. 21, 2013 Rise Set
Actual Time 6:44 AM CDT 7:51 PM CDT
Civil Twilight 6:18 AM CDT 8:16 PM CDT
Nautical Twilight 5:48 AM CDT 8:46 PM CDT
Astronomical Twilight 5:18 AM CDT 9:17 PM CDT
Moon 3:53 PM CDT 3:49 AM CDT
Length of Visible Light 13h 58m
Length of Day
13h 07m
Waxing Gibbous, 80% of the Moon is Illuminated
Apr 21
Waxing Gibbous
Apr 25
Full
May 2
Last Quarter
May 9
New
May 17
First Quarter

Hourly Weather History & Observations

Time (CDT) Temp. Dew Point Humidity Pressure Visibility Wind Dir Wind Speed Gust Speed Precip Events Conditions
12:53 AM 46.9 °F 42.1 °F 83% 30.18 in 10.0 mi Calm Calm - N/A   Clear
1:53 AM 46.9 °F 42.1 °F 83% 30.16 in 10.0 mi Calm Calm - N/A   Clear
2:53 AM 44.1 °F 41.0 °F 89% 30.13 in 10.0 mi Calm Calm - N/A   Clear
3:53 AM 44.1 °F 41.0 °F 89% 30.14 in 10.0 mi Calm Calm - N/A   Clear
4:53 AM 44.1 °F 41.0 °F 89% 30.15 in 10.0 mi Calm Calm - N/A   Clear
5:53 AM 43.0 °F 39.9 °F 89% 30.16 in 10.0 mi Calm Calm - N/A   Clear
7:53 AM 53.1 °F 46.0 °F 77% 30.20 in 10.0 mi Calm Calm - N/A   Clear
8:22 AM 55.4 °F 46.4 °F 72% 30.20 in 10.0 mi NE 4.6 mph - N/A   Partly Cloudy
8:53 AM 59.0 °F 48.0 °F 67% 30.20 in 10.0 mi ENE 6.9 mph - N/A   Clear
9:53 AM 64.0 °F 48.0 °F 56% 30.20 in 10.0 mi East 6.9 mph - N/A   Clear
10:53 AM 66.9 °F 45.0 °F 45% 30.22 in 10.0 mi SE 6.9 mph 17.3 mph N/A   Clear
11:53 AM 69.1 °F 43.0 °F 39% 30.21 in 10.0 mi SE 9.2 mph 17.3 mph N/A   Partly Cloudy
12:53 PM 70.0 °F 43.0 °F 38% 30.18 in 10.0 mi Variable 3.5 mph - N/A   Clear
1:53 PM 72.0 °F 43.0 °F 35% 30.15 in 10.0 mi East 6.9 mph - N/A   Clear
2:53 PM 73.9 °F 42.1 °F 32% 30.13 in 10.0 mi East 4.6 mph - N/A   Partly Cloudy
3:53 PM 73.9 °F 45.0 °F 35% 30.11 in 10.0 mi East 5.8 mph - N/A   Partly Cloudy
4:53 PM 73.9 °F 45.0 °F 35% 30.09 in 10.0 mi ESE 6.9 mph - N/A   Clear
5:53 PM 73.9 °F 42.1 °F 32% 30.09 in 10.0 mi East 8.1 mph - N/A   Clear
6:53 PM 72.0 °F 45.0 °F 38% 30.08 in 10.0 mi ENE 8.1 mph - N/A   Clear
8:53 PM 62.1 °F 48.9 °F 62% 30.10 in 10.0 mi Calm Calm - N/A   Clear
9:53 PM 57.0 °F 50.0 °F 77% 30.12 in 10.0 mi Calm Calm - N/A   Clear
10:53 PM 57.0 °F 48.0 °F 72% 30.14 in 10.0 mi ENE 6.9 mph - N/A   Clear
11:53 PM 57.0 °F 46.9 °F 69% 30.14 in 10.0 mi East 4.6 mph - N/A   Clear